Overview Statistics Trail Chart Weather Telemetry Raw packets
 

This is the latest recevied weather packets stored in our database for station/object IW2MUC-12. If no packets are shown the sender has not sent any weather packets the latest 10 day(s).

<< 10 11 12 13 14 15 16 >>
Time Temp. Humidity Pressure Rain* Wind** Luminosity Snow
1787941742 24.44° C 63% 992 hPa - - - -
1787941138 24.44° C 64% 992 hPa - - - -
1787939925 25° C 61% 988 hPa - - - -
1787939321 25° C 59% 989 hPa - - - -
1787938717 25.56° C 59% 988 hPa - - - -
1787938113 25.56° C 58% 988 hPa - - - -
1787937509 26.11° C 57% 989 hPa - - - -
1787936905 26.11° C 56% 988 hPa - - - -
1787936301 26.67° C 56% 988 hPa - - - -
1787935697 27.22° C 55% 988 hPa - - - -
1787935093 27.22° C 54% 988 hPa - - - -
1787934489 27.78° C 53% 988 hPa - - - -
1787933894 28.33° C 50% 988 hPa - - - -
1787927958 33.89° C 43% 987 hPa - - - -
1787927354 34.44° C 43% 987 hPa - - - -
1787926750 35° C 43% 987 hPa - - - -
1787926146 36.11° C 43% 987 hPa - - - -
1787925542 36.67° C 43% 987 hPa - - - -
1787924938 37.22° C 43% 987 hPa - - - -
1787923730 36.67° C 45% 987 hPa - - - -
1787923126 37.22° C 45% 988 hPa - - - -
1787922522 37.22° C 46% 988 hPa - - - -
1787921918 36.67° C 48% 988 hPa - - - -
1787921314 36.11° C 49% 988 hPa - - - -
1787920710 35.56° C 51% 988 hPa - - - -

* Rain since midnight (hover to see other rain measurements)
** Current wind speed in m/s (hover to see current wind gust speed)